Location: Vancouver
(49.2500°N, 123.1330°W)
Time: 01:35:24
(UTC-07:00)

Transit 2A Rocket - Visible Passes

Search period start: 02 August 2014 00:00
Search period end: 12 August 2014 00:00
Orbit: 595 x 913 km, 66.7° (Epoch: 31 July)

Date Brightness Start Highest point End Pass type
(mag) Time Alt. Az. Time Alt. Az. Time Alt. Az.
02 Aug 5.6 00:04:57 10° NW 00:09:03 34° WSW 00:09:50 32° SW visible
02 Aug 6.1 21:40:50 10° NNW 21:44:39 27° NE 21:48:40 10° E visible
02 Aug 5.0 23:23:05 10° NW 23:27:31 57° WSW 23:29:10 36° S visible
03 Aug 4.6 22:41:22 10° NW 22:45:54 88° NE 22:48:33 27° SE visible
04 Aug 6.9 00:25:31 10° WNW 00:27:57 14° WSW 00:28:30 14° WSW visible
04 Aug 5.0 21:59:47 10° NNW 22:04:13 56° NE 22:07:58 16° SE visible
04 Aug 6.3 23:42:54 10° WNW 23:46:33 24° WSW 23:47:55 21° SW visible
05 Aug 5.6 21:18:16 10° NNW 21:22:26 36° NE 21:26:52 10° ESE visible
05 Aug 5.7 23:00:49 10° NW 23:05:04 38° WSW 23:07:23 24° SSW visible
06 Aug 5.0 22:19:00 10° NW 22:23:30 64° WSW 22:26:53 19° SSE visible
07 Aug 4.7 21:37:19 10° NW 21:41:52 80° NE 21:46:26 12° SE visible
07 Aug 7.0 23:21:08 10° WNW 23:23:59 16° WSW 23:26:25 12° SW visible
08 Aug 6.4 22:38:42 10° WNW 22:42:34 26° WSW 22:46:01 13° SSW visible
09 Aug 5.7 21:56:42 10° NW 22:01:03 43° WSW 22:05:41 10° S visible
10 Aug 5.0 21:14:55 10° NW 21:19:28 72° WSW 21:24:25 10° SSE visible
10 Aug 7.4 23:00:21 10° W 23:01:22 11° WSW 23:02:23 10° WSW visible
11 Aug 7.0 22:16:48 10° WNW 22:20:00 18° WSW 22:23:22 10° SSW visible
